Delta Virtual Airport Information Service

Austin Bergstrom International Airport

ICAO: KAUS Country: United States
Latitude: 30.1945 Longitude: -97.6698
Latest Arrival : DAL1036 (A) (KATL-KAUS) Latest Departure : SWA4609 (A) (KAUS-KLAX)


WX CaptureLIVE
Data provided by noaa.gov | Fetched at 19:09:09

METAR : KAUS 172253Z 17010KT 10SM FEW080 BKN200 BKN250 38/18 A2989 RMK AO2 SLP107 T03780178

TAF : KAUS 172253Z 17010KT 10SM FEW080 BKN200 BKN250 38/18 A2989 RMK AO2 SLP107 T03780178


Runway Data for KAUS
Data provided by openaviationdata.com

Runway ID Mag Var Hdg Length Elevation Surface ILS Freq ILS Id ILS Slope
17L 6 172° 9022 ft 494 ft Concrete 110.5 IVNK 3
17R 6 172° 12278 ft 494 ft Concrete 110.3 IGFQ 3
35L 6 352° 12278 ft 494 ft Concrete 110.3 IBSM 3
35R 6 352° 9022 ft 494 ft Concrete 110.5 IHCE 3

Austin Bergstrom International Airport, United States
Use only for reference purposes



Not for navigational purposes.